sat.trackr.live / text

‹ back to catalog

LEMUR-2-LIA-MARTIN

NORAD 63248 · 2025-052AQ

PAYLOAD ACTIVE UNKNOWN

§ Identity

Operator
Country
US
Launch date
2025-03-15
Launch site
AFWTR
Launch vehicle
Mass (kg)
RCS (m²)

Purposes: earth_obs

External: N2YO · Heavens-Above · Gunter

§ Orbital elements

Epoch: 2026-05-25T03:48:24.920064Z

Period
96.16 min
Inclination
97.6911°
Eccentricity
0.0001832
Mean motion
14.97555278 rev/d
Perigee alt
573.2 km
Apogee alt
575.7 km
Semi-major
6,952.6 km
B*
3.6224e-4
RAAN
37.9385°
Arg perigee
268.7856°
Mean anomaly
91.3156°
Rev number
6,523

§ Raw data

LEMUR-2-LIA-MARTIN1 63248U 25052AQ  26145.15862176  .00004171  00000+0  36224-3 0  99932 63248  97.6911  37.9385 0001832 268.7856  91.3156 14.97555278 65233

JSON: /api/v1/satellites/63248 · /tle

For live sub-satellite position, see the globe view (requires WebGL).

§ Visibility from observer

Set your observer location to see the next 7 days of passes ≥ 10°. The values pass through the URL so the page stays shareable.

No JS? Fill the form by hand. The geolocation button needs JavaScript.